DW6650 Weather Reports


Display with metric or nautical units.
time (UTC)temp
F
wind
direction
speed
MPH
gust
MPH
rain 1hr
in
rain 24hr
in
rain mn
in
humidity
%
barometer
mb
20260505194017 81 68 1.0 6.0 0.00 0.00 0.00 43 1015.2
20260505193517 81 135 1.0 3.0 0.00 0.00 0.00 43 1015.4
20260505193017 81 90 2.0 14.0 0.00 0.00 0.00 41 1015.3
20260505192518 81 203 1.0 2.0 0.00 0.00 0.00 39 1015.4
20260505192058 81 225 0.0 2.0 0.00 0.00 0.00 40 1015.4
20260505191537 81 225 1.0 2.0 0.00 0.00 0.00 39 1015.6
20260505191038 81 113 1.0 5.0 0.00 0.00 0.00 41 1015.8
20260505190517 81 203 1.0 3.0 0.00 0.00 0.00 43 1015.8
20260505190037 81 203 1.0 5.0 0.00 0.00 0.00 42 1015.8
20260505185517 81 203 1.0 3.0 0.00 0.00 0.00 42 1015.9
20260505185038 81 180 1.0 3.0 0.00 0.00 0.00 42 1015.9
20260505184517 81 225 1.0 3.0 0.00 0.00 0.00 44 1016.1
20260505184057 81 225 1.0 3.0 0.00 0.00 0.00 44 1016.3
20260505183517 81 203 1.0 8.0 0.00 0.00 0.00 43 1016.4
20260505183019 80 225 1.0 2.0 0.00 0.00 0.00 44 1016.4
20260505182518 80 203 1.0 3.0 0.00 0.00 0.00 44 1016.5
20260505182017 80 225 2.0 6.0 0.00 0.00 0.00 47 1016.5
20260505181537 80 113 2.0 8.0 0.00 0.00 0.00 46 1016.4
20260505181017 80 113 0.0 3.0 0.00 0.00 0.00 46 1016.6
20260505180517 79 113 0.0 2.0 0.00 0.00 0.00 47 1016.6
20260505180017 79 225 1.0 5.0 0.00 0.00 0.00 48 1016.6
20260505175517 79 113 1.0 3.0 0.00 0.00 0.00 48 1016.7
20260505175102 78 203 1.0 3.0 0.00 0.00 0.00 46 1016.8
20260505174518 78 180 0.0 2.0 0.00 0.00 0.00 49 1016.9
20260505174037 78 90 1.0 5.0 0.00 0.00 0.00 49 1016.8
20260505173517 78 203 1.0 3.0 0.00 0.00 0.00 49 1016.8
20260505173017 78 203 2.0 3.0 0.00 0.00 0.00 50 1016.9
20260505172537 78 203 1.0 5.0 0.00 0.00 0.00 49 1016.8
20260505172038 78 225 1.0 3.0 0.00 0.00 0.00 47 1016.9
20260505171518 79 180 1.0 7.0 0.00 0.00 0.00 48 1017.0
20260505171017 78 158 1.0 7.0 0.00 0.00 0.00 51 1017.1
20260505170517 78 203 1.0 2.0 0.00 0.00 0.00 47 1017.0
20260505170017 78 90 1.0 3.0 0.00 0.00 0.00 51 1017.0
20260505165517 78 113 1.0 3.0 0.00 0.00 0.00 54 1017.0
20260505165017 78 90 1.0 5.0 0.00 0.00 0.00 54 1017.1
20260505164537 77 180 1.0 5.0 0.00 0.00 0.00 53 1017.0
20260505164037 77 225 1.0 3.0 0.00 0.00 0.00 52 1017.2
20260505163517 77 203 1.0 3.0 0.00 0.00 0.00 50 1017.3
20260505163017 77 225 1.0 3.0 0.00 0.00 0.00 50 1017.4
20260505162517 77 113 1.0 4.0 0.00 0.00 0.00 51 1017.5
20260505162017 77 90 1.0 3.0 0.00 0.00 0.00 54 1017.6
20260505161517 77 90 0.0 1.0 0.00 0.00 0.00 52 1017.7
20260505161017 76 180 0.0 2.0 0.00 0.00 0.00 52 1017.8
20260505160518 77 68 0.0 1.0 0.00 0.00 0.00 50 1017.8
20260505153017 76 315 1.0 3.0 0.00 0.00 0.00 51 1017.9
20260505152519 76 90 1.0 2.0 0.00 0.00 0.00 52 1018.0
20260505152037 76 90 1.0 4.0 0.00 0.00 0.00 52 1018.0
20260505151517 75 23 1.0 4.0 0.00 0.00 0.00 53 1017.9
20260505151017 75 315 0.0 2.0 0.00 0.00 0.00 53 1017.8
20260505150537 75 45 0.0 2.0 0.00 0.00 0.00 56 1017.9
20260505140516 70 113 0.0 2.0 0.00 0.00 0.00 67 1017.6
20260505125016 62 68 0.0 1.0 0.00 0.00 0.00 83 1016.9
20260505124517 61 82 0.0 0.0 0.00 0.00 0.00 85 1017.1
20260505124016 60 68 0.0 1.0 0.00 0.00 0.00 87 1017.0
20260505123516 59 68 0.0 1.0 0.00 0.00 0.00 89 1017.1
20260505123016 58 64 0.0 0.0 0.00 0.00 0.00 91 1017.0
20260505122516 58 64 0.0 0.0 0.00 0.00 0.00 91 1017.1
20260505122016 57 64 0.0 0.0 0.00 0.00 0.00 92 1017.1
20260505121536 57 64 0.0 0.0 0.00 0.00 0.00 93 1016.9
20260505121016 56 68 0.0 1.0 0.00 0.00 0.00 93 1016.9
20260505120516 56 64 0.0 0.0 0.00 0.00 0.00 93 1016.8
20260505120016 55 64 0.0 0.0 0.00 0.00 0.00 93 1016.8
20260505115516 55 68 0.0 1.0 0.00 0.00 0.00 93 1016.7
20260505115016 54 68 0.0 1.0 0.00 0.00 0.00 93 1016.7
20260505114516 54 68 0.0 1.0 0.00 0.00 0.00 93 1016.6
20260505114016 54 45 0.0 1.0 0.00 0.00 0.00 93 1016.5
20260505113516 53 45 0.0 1.0 0.00 0.00 0.00 93 1016.5
20260505113016 53 45 0.0 1.0 0.00 0.00 0.00 92 1016.5
20260505112516 53 45 0.0 2.0 0.00 0.00 0.00 92 1016.5
20260505112021 53 68 0.0 1.0 0.00 0.00 0.00 91 1016.5
20260505111516 54 68 0.0 1.0 0.00 0.00 0.00 92 1016.4
20260505111016 54 68 0.0 1.0 0.00 0.00 0.00 92 1016.3
20260505110516 54 75 0.0 0.0 0.00 0.00 0.00 92 1016.2
20260505102016 53 90 0.0 1.0 0.00 0.00 0.00 91 1016.2
20260505101520 53 90 0.0 2.0 0.00 0.00 0.00 91 1016.0
20260505101016 53 68 0.0 1.0 0.00 0.00 0.00 91 1016.0
20260505100516 53 68 0.0 1.0 0.00 0.00 0.00 91 1016.0
20260505100016 53 68 0.0 1.0 0.00 0.00 0.00 90 1016.0
20260505095516 53 68 0.0 2.0 0.00 0.00 0.00 90 1016.0
20260505095016 53 23 0.0 1.0 0.00 0.00 0.00 89 1016.2
20260505094516 53 90 0.0 1.0 0.00 0.00 0.00 90 1016.2
20260505094016 53 83 0.0 0.0 0.00 0.00 0.00 90 1016.2
20260505093538 54 90 0.0 1.0 0.00 0.00 0.00 89 1016.3
20260505093016 54 90 0.0 1.0 0.00 0.00 0.00 89 1016.4
20260505092516 54 90 0.0 1.0 0.00 0.00 0.00 89 1016.3
20260505092036 54 90 0.0 1.0 0.00 0.00 0.00 89 1016.4
20260505091516 54 83 0.0 0.0 0.00 0.00 0.00 88 1016.5
20260505091020 54 90 0.0 2.0 0.00 0.00 0.00 87 1016.5
20260505090516 54 90 0.0 1.0 0.00 0.00 0.00 86 1016.6
20260505090016 55 83 0.0 0.0 0.00 0.00 0.00 85 1016.6
20260505085516 55 90 0.0 1.0 0.00 0.00 0.00 85 1016.5
20260505085015 55 90 1.0 2.0 0.00 0.00 0.00 85 1016.5
20260505084516 56 83 0.0 0.0 0.00 0.00 0.00 85 1016.4
20260505084016 56 83 0.0 0.0 0.00 0.00 0.00 84 1016.4
20260505083516 56 83 0.0 0.0 0.00 0.00 0.00 83 1016.4
20260505083016 57 83 0.0 0.0 0.00 0.00 0.00 82 1016.4
20260505082516 57 83 0.0 0.0 0.00 0.00 0.00 82 1016.4
20260505082016 57 83 0.0 0.0 0.00 0.00 0.00 82 1016.4
20260505081535 57 83 0.0 0.0 0.00 0.00 0.00 82 1016.5
20260505081017 57 90 0.0 1.0 0.00 0.00 0.00 82 1016.4
20260505080517 57 90 0.0 1.0 0.00 0.00 0.00 81 1016.5
20260505080038 57 83 0.0 0.0 0.00 0.00 0.00 81 1016.5
20260505075517 57 90 0.0 1.0 0.00 0.00 0.00 81 1016.4
20260505075038 57 83 0.0 0.0 0.00 0.00 0.00 80 1016.3
20260505074517 57 83 0.0 0.0 0.00 0.00 0.00 80 1016.2
20260505074017 58 83 0.0 0.0 0.00 0.00 0.00 80 1016.1
20260505073537 58 90 0.0 1.0 0.00 0.00 0.00 79 1016.2
20260505073017 58 68 0.0 1.0 0.00 0.00 0.00 79 1016.3
20260505072538 58 68 1.0 3.0 0.00 0.00 0.00 79 1016.2
20260505072017 58 90 0.0 2.0 0.00 0.00 0.00 77 1016.4
20260505071517 58 90 1.0 2.0 0.00 0.00 0.00 77 1016.2
20260505071017 58 68 1.0 2.0 0.00 0.00 0.00 77 1016.3
20260505070517 58 68 0.0 2.0 0.00 0.00 0.00 76 1016.3
20260505070038 58 23 0.0 2.0 0.00 0.00 0.00 76 1016.2
20260505065517 58 90 0.0 2.0 0.00 0.00 0.00 76 1016.3
20260505065017 58 68 0.0 2.0 0.00 0.00 0.00 76 1016.3
20260505064517 58 68 0.0 3.0 0.00 0.00 0.00 76 1016.2
20260505064017 57 90 0.0 3.0 0.00 0.00 0.00 75 1016.1
20260505063517 57 90 0.0 2.0 0.00 0.00 0.00 75 1016.1
20260505063017 57 113 0.0 1.0 0.00 0.00 0.00 74 1016.2
20260505062538 56 135 0.0 3.0 0.00 0.00 0.00 72 1016.2
20260505062017 56 63 0.0 0.0 0.00 0.00 0.00 72 1016.2
20260505061517 57 57 0.0 0.0 0.00 0.00 0.00 72 1016.3
20260505061017 57 42 0.0 0.0 0.00 0.00 0.00 73 1016.3
20260505060517 57 65 0.0 0.0 0.00 0.00 0.00 73 1016.4
20260505060017 57 90 0.0 0.0 0.00 0.00 0.00 74 1016.1
20260505055517 57 90 0.0 0.0 0.00 0.00 0.00 74 1016.1
20260505055037 58 90 0.0 0.0 0.00 0.00 0.00 74 1016.2
20260505054517 58 90 0.0 0.0 0.00 0.00 0.00 73 1016.2
20260505054037 59 90 0.0 0.0 0.00 0.00 0.00 72 1016.2
20260505053517 59 90 0.0 0.0 0.00 0.00 0.00 71 1016.2
20260505053018 60 90 0.0 0.0 0.00 0.00 0.00 70 1016.2
20260505052518 60 90 0.0 0.0 0.00 0.00 0.00 69 1016.2
20260505052017 60 90 0.0 0.0 0.00 0.00 0.00 69 1016.3
20260505051517 61 90 0.0 0.0 0.00 0.00 0.00 68 1016.2
20260505051017 61 90 0.0 0.0 0.00 0.00 0.00 68 1016.3
20260505050517 61 90 0.0 0.0 0.00 0.00 0.00 67 1016.3
20260505041537 61 90 0.0 0.0 0.00 0.00 0.00 67 1016.3
20260505041017 62 90 0.0 0.0 0.00 0.00 0.00 65 1016.3
20260505040517 62 90 0.0 0.0 0.00 0.00 0.00 64 1016.4
20260505040017 62 90 0.0 0.0 0.00 0.00 0.00 64 1016.3
20260505035558 62 90 0.0 0.0 0.00 0.00 0.00 64 1016.5
20260505035018 63 90 0.0 0.0 0.00 0.00 0.00 64 1016.5
20260505034517 63 90 0.0 0.0 0.00 0.00 0.00 61 1016.6
20260505034017 63 90 0.0 0.0 0.00 0.00 0.00 62 1016.6
20260505033517 63 90 0.0 0.0 0.00 0.00 0.00 62 1016.7
20260505033017 63 90 0.0 0.0 0.00 0.00 0.00 62 1016.6
20260505032538 63 90 0.0 0.0 0.00 0.00 0.00 63 1016.7
20260505032118 62 90 0.0 0.0 0.00 0.00 0.00 62 1016.7
20260505031517 62 90 0.0 0.0 0.00 0.00 0.00 62 1016.7
20260505031038 62 90 0.0 0.0 0.00 0.00 0.00 63 1016.7
20260505030538 62 90 0.0 0.0 0.00 0.00 0.00 62 1016.7
20260505030017 62 90 0.0 0.0 0.00 0.00 0.00 63 1016.7
20260505025537 62 90 0.0 0.0 0.00 0.00 0.00 61 1016.7
20260505025017 62 90 0.0 0.0 0.00 0.00 0.00 62 1016.6
20260505024517 62 90 0.0 0.0 0.00 0.00 0.00 64 1016.6
20260505024017 63 90 0.0 1.0 0.00 0.00 0.00 64 1016.5
20260505023537 63 90 0.0 1.0 0.00 0.00 0.00 64 1016.6
20260505023057 63 90 0.0 1.0 0.00 0.00 0.00 65 1016.6
20260505022517 63 90 0.0 1.0 0.00 0.00 0.00 62 1016.5
20260505022038 63 90 0.0 2.0 0.00 0.00 0.00 63 1016.6
20260505021517 63 90 0.0 0.0 0.00 0.00 0.00 63 1016.5
20260505021017 63 90 0.0 0.0 0.00 0.00 0.00 62 1016.4
20260505020517 64 90 0.0 0.0 0.00 0.00 0.00 62 1016.4
20260505020037 64 90 0.0 0.0 0.00 0.00 0.00 60 1016.4
20260505015517 64 90 0.0 0.0 0.00 0.00 0.00 57 1016.4
20260505015017 65 90 0.0 0.0 0.00 0.00 0.00 57 1016.3
20260505014517 65 90 0.0 0.0 0.00 0.00 0.00 59 1016.1
20260505014017 65 90 0.0 0.0 0.00 0.00 0.00 56 1016.1
20260505013517 66 90 0.0 0.0 0.00 0.00 0.00 54 1016.0
20260505013017 66 90 0.0 0.0 0.00 0.00 0.00 55 1015.8
20260505012517 66 90 0.0 0.0 0.00 0.00 0.00 53 1015.8
20260505012037 66 90 0.0 0.0 0.00 0.00 0.00 53 1015.7
20260505011537 67 90 0.0 0.0 0.00 0.00 0.00 52 1015.7
20260505011017 67 90 0.0 0.0 0.00 0.00 0.00 51 1015.6
20260505010517 68 90 0.0 0.0 0.00 0.00 0.00 50 1015.6
20260505010057 68 90 0.0 0.0 0.00 0.00 0.00 48 1015.6
20260505005537 68 90 0.0 1.0 0.00 0.00 0.00 49 1015.4
20260505005017 69 90 0.0 0.0 0.00 0.00 0.00 47 1015.4
20260505004517 70 90 0.0 0.0 0.00 0.00 0.00 47 1015.4
20260505004017 70 90 0.0 0.0 0.00 0.00 0.00 46 1015.3
20260505003517 71 90 0.0 0.0 0.00 0.00 0.00 44 1015.3
20260505003017 71 90 0.0 0.0 0.00 0.00 0.00 44 1015.3
20260505002517 72 90 0.0 0.0 0.00 0.00 0.00 43 1015.2
20260505002037 73 90 0.0 0.0 0.00 0.00 0.00 44 1015.3
20260505001537 73 90 0.0 0.0 0.00 0.00 0.00 41 1015.2
20260505001017 74 90 0.0 0.0 0.00 0.00 0.00 40 1015.2
20260505000517 75 90 0.0 0.0 0.00 0.00 0.00 39 1015.3
20260505000017 76 90 0.0 1.0 0.00 0.00 0.00 39 1015.3
20260504235517 76 90 0.0 0.0 0.00 0.00 0.00 39 1015.3
20260504235017 77 90 0.0 0.0 0.00 0.00 0.00 38 1015.3
20260504234537 77 90 0.0 0.0 0.00 0.00 0.00 39 1015.3
20260504234036 77 90 0.0 0.0 0.00 0.00 0.00 39 1015.3
20260504233537 77 90 0.0 1.0 0.00 0.00 0.00 37 1015.3
20260504233016 77 90 0.0 0.0 0.00 0.00 0.00 37 1015.3
20260504232517 78 90 1.0 5.0 0.00 0.00 0.00 36 1015.4
20260504232037 79 75 0.0 0.0 0.00 0.00 0.00 35 1015.4
20260504231537 79 75 0.0 0.0 0.00 0.00 0.00 35 1015.3
20260504231017 79 68 0.0 1.0 0.00 0.00 0.00 35 1015.3
20260504230517 79 68 0.0 1.0 0.00 0.00 0.00 33 1015.3
20260504230016 79 203 0.0 2.0 0.00 0.00 0.00 32 1015.3
20260504225516 80 203 0.0 2.0 0.00 0.00 0.00 30 1015.2
20260504225016 80 203 0.0 2.0 0.00 0.00 0.00 29 1015.2
20260504224516 80 203 1.0 3.0 0.00 0.00 0.00 30 1015.1
20260504224016 80 158 0.0 1.0 0.00 0.00 0.00 33 1015.1
20260504223516 80 158 0.0 2.0 0.00 0.00 0.00 32 1015.2
20260504223016 80 90 1.0 5.0 0.00 0.00 0.00 29 1015.2
20260504222536 80 68 1.0 3.0 0.00 0.00 0.00 30 1015.3
20260504222016 80 90 1.0 4.0 0.00 0.00 0.00 30 1015.3
20260504221516 80 68 1.0 4.0 0.00 0.00 0.00 31 1015.3
20260504221036 81 293 0.0 3.0 0.00 0.00 0.00 32 1015.3
20260504220516 81 68 0.0 3.0 0.00 0.00 0.00 33 1015.4
20260504220016 81 135 0.0 2.0 0.00 0.00 0.00 34 1015.4
20260504215536 81 135 0.0 3.0 0.00 0.00 0.00 31 1015.3
20260504215016 81 68 0.0 3.0 0.00 0.00 0.00 30 1015.2
20260504214516 81 90 0.0 1.0 0.00 0.00 0.00 32 1015.3
20260504214016 81 90 1.0 6.0 0.00 0.00 0.00 31 1015.3
20260504213516 81 113 1.0 5.0 0.00 0.00 0.00 33 1015.3
20260504213016 81 180 1.0 3.0 0.00 0.00 0.00 31 1015.2
20260504212516 81 180 1.0 5.0 0.00 0.00 0.00 32 1015.3
20260504212016 81 45 0.0 1.0 0.00 0.00 0.00 27 1015.2
20260504211537 81 203 0.0 3.0 0.00 0.00 0.00 28 1015.3
20260504211016 80 94 0.0 0.0 0.00 0.00 0.00 33 1015.4
20260504210536 80 113 0.0 3.0 0.00 0.00 0.00 30 1015.3
20260504210016 80 113 0.0 1.0 0.00 0.00 0.00 31 1015.3
20260504205517 80 248 0.0 2.0 0.00 0.00 0.00 30 1015.3
20260504205036 80 248 0.0 2.0 0.00 0.00 0.00 30 1015.3
20260504204516 80 203 1.0 3.0 0.00 0.00 0.00 30 1015.3
20260504204016 80 248 0.0 3.0 0.00 0.00 0.00 30 1015.4
20260504203537 80 248 0.0 2.0 0.00 0.00 0.00 30 1015.5
20260504203037 80 203 0.0 1.0 0.00 0.00 0.00 29 1015.5
20260504202516 80 293 1.0 3.0 0.00 0.00 0.00 30 1015.6
20260504202016 80 135 1.0 3.0 0.00 0.00 0.00 30 1015.6
20260504201516 80 113 1.0 3.0 0.00 0.00 0.00 31 1015.7
20260504201016 80 113 0.0 2.0 0.00 0.00 0.00 32 1015.8
20260504200516 80 113 1.0 2.0 0.00 0.00 0.00 30 1015.8
20260504200016 80 203 0.0 2.0 0.00 0.00 0.00 30 1015.9
20260504195516 79 113 1.0 4.0 0.00 0.00 0.00 32 1015.9
20260504195016 79 90 2.0 9.0 0.00 0.00 0.00 31 1016.0
20260504194516 79 90 1.0 5.0 0.00 0.00 0.00 30 1016.1